RH
17 16 16 16 15 14 13 15 15 14 12 11 10 9 8 8 8 8 8 8 7 10 14 14 14 19 20 19 31 40 31 27 30 35 47 50 50 54 42 22 24 30 22 19 19 18 19 18 19 18 20 20 20 22 22 23 23 25 27 29 30 31 32 33 33 32 31 29 28 28 27 27 27 27 27 27 27 26 25 24 23 22 21 20 19 18 16 13 10 8 6 6 9 11 12 10 9
18 17 17 16 15 15 15 16 15 12 11 11 10 10 9 8 8 7 9 12 12 15 19 19 17 19 21 20 24 34 35 27 24 29 41 46 47 50 39 24 26 32 24 19 19 19 19 19 19 19 20 20 21 21 21 22 22 23 25 27 29 30 31 32 32 32 30 29 27 27 26 26 26 26 26 27 27 26 26 25 24 23 22 21 21 20 19 17 14 11 8 5 6 6 7 8 8
18 17 17 17 16 16 16 15 15 13 11 11 10 10 9 8 8 7 10 14 18 19 20 18 17 20 21 24 25 31 39 34 28 29 36 45 44 37 31 24 24 31 27 19 19 20 20 20 20 20 20 20 21 21 21 21 21 22 23 25 27 29 30 30 31 31 29 28 27 26 25 25 25 25 25 26 26 26 26 26 25 24 23 22 22 22 21 19 17 15 11 7 6 5 5 5 5
18 17 17 17 16 17 16 15 14 13 12 11 10 9 8 8 7 8 11 13 17 17 18 18 16 21 22 28 35 39 44 41 38 37 34 39 43 34 24 21 24 32 28 20 20 20 21 21 21 21 21 21 21 21 21 20 20 20 21 22 24 26 27 28 29 29 28 26 26 25 24 24 24 24 25 25 26 26 26 26 25 24 24 23 23 22 22 21 19 17 14 11 8 6 6 6 6
18 17 17 16 16 16 15 14 13 12 12 11 10 9 8 9 7 8 12 14 15 14 16 18 14 18 29 37 41 44 49 45 41 43 35 32 37 31 22 20 24 32 29 22 19 20 22 21 21 22 22 21 21 21 21 20 19 19 19 20 21 23 24 25 26 27 26 25 24 23 23 23 23 23 24 24 25 25 25 25 25 25 24 24 24 23 22 22 20 18 16 13 11 9 9 8 8
17 17 16 16 15 15 15 13 13 12 11 11 10 10 8 8 8 7 9 11 12 13 13 15 13 16 32 38 36 40 43 39 38 43 36 30 31 24 21 22 26 33 31 26 20 20 22 21 21 21 21 21 21 21 20 19 18 18 18 18 19 20 21 22 23 24 24 24 23 22 22 22 22 22 22 23 23 24 25 25 25 25 24 24 24 24 23 22 22 20 19 17 16 15 13 12 12
17 16 15 16 16 15 16 13 13 12 11 11 10 10 9 8 9 8 8 9 8 11 12 16 18 16 28 37 35 41 45 40 34 34 30 31 29 20 22 23 28 34 33 29 22 20 22 22 21 20 21 20 20 20 19 18 17 16 16 16 17 17 18 19 20 21 21 21 21 21 21 21 21 21 22 22 22 23 23 24 24 24 24 24 24 24 24 23 23 22 22 21 21 20 19 18 17
16 15 14 16 17 16 15 13 13 11 11 11 10 10 10 9 8 9 9 9 8 9 11 17 24 21 30 43 41 41 44 42 31 26 28 32 29 21 23 21 24 30 32 33 24 21 22 21 21 19 19 19 18 18 18 17 16 16 15 15 15 16 16 17 17 18 19 19 19 20 20 20 20 21 21 21 22 22 22 23 23 24 24 24 24 24 24 24 24 24 24 24 24 24 23 23 23
14 13 12 13 14 15 14 13 12 10 11 10 11 10 9 10 8 9 9 9 9 9 9 10 21 25 33 41 39 41 41 36 29 28 31 34 31 24 25 23 20 21 28 34 26 21 20 20 20 18 18 18 18 17 18 18 17 16 15 15 15 15 15 16 16 16 17 17 18 18 19 19 19 20 20 20 21 21 22 22 23 23 23 23 24 23 24 24 24 24 25 25 26 26 26 26 26
10 10 10 12 12 12 12 12 12 10 11 9 9 9 8 9 7 9 7 8 9 9 9 5 13 21 33 44 43 48 49 40 35 34 34 36 31 24 29 27 17 15 26 34 28 22 19 19 19 17 18 18 18 17 19 18 17 17 16 16 15 15 15 16 16 16 16 16 17 17 18 18 19 20 20 20 20 21 21 22 22 22 23 23 23 23 23 24 24 25 25 25 26 26 26 26 26
10 12 11 12 11 10 10 10 11 10 10 9 8 8 8 8 7 8 5 8 9 9 9 6 9 8 26 50 48 47 51 44 39 38 34 35 31 25 29 26 16 16 28 35 29 24 20 18 18 17 17 18 18 17 19 19 18 18 17 16 16 16 16 16 16 16 16 16 17 17 18 18 18 19 19 20 20 20 21 21 22 22 22 23 23 23 24 23 24 24 25 25 25 26 26 26 26
12 16 13 12 10 8 9 9 10 9 9 7 7 7 7 8 7 6 6 9 9 9 7 6 7 6 31 54 45 43 49 42 40 40 34 34 29 24 28 26 22 17 28 38 31 25 20 18 18 17 17 18 18 18 19 19 19 18 17 17 17 17 16 17 16 16 17 16 17 17 17 17 18 18 19 20 20 20 20 21 21 21 22 22 23 23 23 23 24 24 24 24 25 25 26 26 26
12 15 13 12 10 8 7 8 8 8 8 6 6 6 5 6 6 5 7 9 7 8 5 6 5 7 35 53 44 44 48 44 42 39 35 34 24 29 41 31 21 17 30 42 31 26 21 18 18 17 18 18 18 19 19 20 20 19 18 18 17 18 17 17 17 17 17 16 17 17 17 17 18 18 19 19 20 20 20 21 21 21 22 22 22 22 23 23 23 23 24 24 25 25 26 26 26
11 14 12 11 11 10 8 7 6 6 6 6 6 5 5 5 5 7 8 8 7 7 5 7 5 5 23 39 46 47 45 44 43 40 39 32 22 45 57 28 17 23 36 41 29 26 22 19 18 17 18 18 19 19 21 21 22 21 20 19 19 19 18 18 19 18 18 17 17 17 18 18 18 19 19 19 19 20 20 20 21 21 21 22 22 22 23 22 23 23 23 24 24 25 26 26 26
12 16 14 11 11 10 9 8 6 6 5 5 5 4 6 5 6 8 9 9 7 8 7 7 6 6 13 23 36 42 43 43 42 43 40 28 32 61 57 25 25 35 41 37 27 26 22 20 19 18 19 18 20 20 22 23 24 24 22 22 20 20 20 20 20 19 18 18 17 18 18 18 19 19 19 20 20 20 20 21 21 21 21 22 22 22 22 22 22 22 23 24 24 24 25 25 26
14 16 15 12 11 10 10 9 7 7 5 4 6 6 7 7 8 8 9 9 8 9 8 10 8 6 18 32 38 39 42 43 42 41 32 26 42 60 48 35 43 44 40 32 27 27 22 21 19 19 20 19 22 23 24 26 27 27 26 25 24 23 22 22 22 20 19 19 19 18 19 19 19 20 20 20 20 20 20 21 21 21 22 22 22 22 22 22 22 22 23 22 22 23 23 24 24
17 16 15 13 11 10 10 9 8 7 5 5 6 8 8 9 8 7 10 10 12 13 10 13 9 8 27 42 43 41 40 41 39 35 26 30 44 49 43 45 53 51 42 33 30 29 23 22 21 21 22 23 26 27 29 30 31 31 31 30 28 27 26 25 24 22 21 19 19 19 19 20 20 20 21 21 20 21 21 21 21 21 22 22 22 22 22 22 22 22 22 23 25 24 23 23 23
20 17 15 14 11 10 9 9 9 7 6 6 7 9 9 10 8 8 17 21 23 22 16 15 10 21 35 29 29 38 42 41 36 31 28 34 41 40 42 45 50 53 51 46 43 39 32 27 25 26 26 29 31 31 33 33 35 36 35 35 33 31 30 29 27 24 22 20 21 20 20 21 22 24 27 27 22 22 22 22 22 22 22 21 22 22 23 23 23 23 22 26 31 27 23 23 24
20 17 14 14 12 11 10 9 9 7 7 6 8 11 11 11 8 13 29 36 35 29 21 15 13 31 40 26 27 37 41 42 36 33 30 31 33 35 41 45 49 52 55 57 55 52 50 43 39 40 36 34 35 34 35 36 39 40 39 38 36 35 34 33 30 26 23 22 22 21 22 24 26 25 27 27 24 23 23 23 23 23 23 23 23 22 22 23 22 23 23 26 29 28 29 29 26
20 17 15 14 13 11 10 10 8 7 6 6 10 14 13 13 10 15 31 37 35 31 22 17 18 28 34 33 36 37 38 39 37 37 32 33 40 42 45 49 53 57 60 62 62 62 61 56 50 46 40 35 35 35 36 39 41 42 43 41 40 39 39 38 35 31 28 25 25 25 26 25 25 23 23 23 23 23 24 25 26 25 24 23 24 24 23 24 23 23 23 24 24 26 30 28 24
21 18 16 14 12 10 10 9 8 7 8 8 10 14 15 14 12 12 19 26 29 29 23 21 23 24 30 36 40 37 35 35 36 38 37 43 53 55 55 58 61 64 66 66 67 66 63 61 54 43 36 29 29 33 37 42 43 43 44 44 43 43 43 43 41 37 33 30 27 28 27 23 22 22 23 26 28 26 25 27 29 31 33 32 32 31 28 24 24 24 23 24 24 26 29 27 30
22 19 16 13 11 10 9 8 8 9 10 10 10 12 15 14 13 12 14 18 20 25 24 22 25 27 31 36 39 38 34 36 38 39 42 50 58 60 59 63 69 68 68 72 69 64 63 62 54 43 36 29 26 30 37 43 44 44 45 46 47 48 48 48 46 42 40 38 31 27 24 22 22 22 25 34 41 38 37 42 47 52 55 53 54 52 47 40 36 33 29 27 27 29 30 29 36
22 20 16 13 12 10 9 9 9 13 12 12 11 11 14 12 11 13 16 16 14 20 22 24 28 28 32 36 38 38 35 38 42 44 46 54 61 62 60 61 66 62 64 75 68 59 60 55 49 45 40 37 34 32 37 43 44 45 48 50 52 53 53 51 50 47 43 40 32 24 22 20 22 29 39 46 53 57 60 65 67 66 64 60 62 63 65 63 60 57 52 47 43 42 41 42 49
20 19 16 14 13 11 10 11 12 16 14 13 13 11 12 10 11 14 16 15 13 16 22 36 42 34 35 38 35 36 38 43 51 56 56 62 68 70 70 62 61 62 63 69 61 54 54 48 46 46 44 46 40 33 39 44 41 46 54 58 58 57 55 50 49 47 38 33 28 23 22 22 23 37 57 63 66 68 69 71 67 65 63 59 59 60 63 66 69 69 67 65 62 60 59 62 66
19 18 17 14 14 12 10 11 13 17 18 16 15 12 11 10 13 14 14 14 14 15 18 37 51 46 43 41 36 35 41 48 58 69 67 68 74 76 78 69 64 69 66 58 52 50 49 46 45 43 47 47 37 33 41 44 42 50 58 60 59 56 52 47 46 42 34 30 27 25 24 24 28 45 66 72 70 66 63 64 63 64 64 59 57 56 56 57 60 62 62 63 64 63 62 64 63
17 17 18 16 14 13 11 12 13 16 20 19 15 13 11 12 15 14 14 14 15 19 20 31 50 56 49 42 37 34 45 58 68 79 71 69 79 77 75 70 62 62 57 48 46 45 43 45 43 43 47 42 36 36 39 44 51 59 59 56 56 52 49 46 44 40 35 32 30 30 33 36 46 62 72 70 67 61 56 58 60 61 58 51 49 49 48 46 46 48 52 55 57 56 54 54 53
16 17 17 17 15 13 13 13 12 15 19 19 15 13 12 13 14 13 13 14 16 25 32 34 45 59 53 43 42 41 55 71 81 84 73 74 83 76 70 62 52 50 45 40 41 41 43 45 42 44 47 41 39 41 43 53 60 61 58 56 55 52 51 49 47 44 40 36 35 42 54 62 69 74 73 68 64 59 55 54 54 54 51 46 44 44 44 43 42 44 47 50 49 45 44 45 45
13 15 15 15 15 14 13 13 14 16 19 19 16 14 13 12 13 13 12 14 17 24 42 46 44 57 60 55 57 58 62 72 79 74 71 84 85 74 66 53 46 46 43 44 46 48 50 46 42 43 45 45 44 44 53 63 63 61 60 59 58 56 56 55 53 48 43 45 52 62 71 75 74 73 70 64 60 57 50 44 44 46 47 47 46 45 44 43 43 42 42 45 44 41 41 45 47
11 13 13 14 15 15 13 13 16 18 19 17 16 14 13 12 12 13 11 16 19 23 48 65 60 63 66 66 66 65 64 60 62 56 62 89 92 78 67 52 48 49 56 66 59 54 53 46 43 44 47 54 54 54 63 66 64 66 66 64 64 65 63 61 59 56 57 62 69 75 75 74 72 70 63 49 46 49 41 38 43 44 45 44 40 41 40 39 41 40 40 43 44 45 46 48 50
12 12 13 15 16 16 14 12 15 19 18 15 15 13 12 12 11 13 11 17 27 38 62 80 80 80 77 68 57 62 70 59 59 62 68 91 98 88 74 62 58 57 66 74 61 53 52 46 46 49 54 60 64 66 70 70 71 73 71 70 72 74 72 69 68 70 72 73 76 77 75 73 68 60 48 34 34 40 40 43 47 46 44 38 33 38 37 35 40 41 40 41 41 43 46 47 48
13 13 13 15 15 15 14 12 14 17 16 15 14 13 13 12 11 13 10 19 41 59 75 78 75 79 78 67 54 64 77 68 75 89 89 94 98 95 85 76 74 71 67 63 60 57 54 55 58 62 65 66 70 73 75 76 76 75 73 73 75 79 79 76 76 77 75 75 77 78 73 66 55 44 37 33 35 41 45 47 47 45 40 32 31 36 33 30 36 39 38 39 37 39 44 47 48
15 14 14 15 14 14 12 11 13 14 15 15 15 13 12 11 12 14 11 25 53 64 70 66 60 65 67 66 65 68 69 64 76 94 96 92 92 96 94 87 84 83 75 68 72 72 72 78 72 65 63 64 72 77 79 80 78 76 77 78 79 81 81 80 80 77 75 74 73 73 66 53 41 37 37 39 43 48 51 47 45 42 34 29 31 30 29 30 34 36 37 35 30 32 38 44 47
15 15 15 15 13 13 12 10 11 13 14 14 15 12 11 13 14 16 18 31 46 49 52 51 50 58 63 63 62 59 58 61 70 84 92 84 79 85 85 86 89 88 83 81 88 88 84 81 67 59 61 68 80 83 81 80 81 83 83 82 80 80 82 84 84 80 77 73 71 70 57 41 38 38 37 40 46 50 49 42 41 45 41 35 32 30 34 37 34 33 31 24 20 21 27 34 38
14 14 14 13 13 13 10 9 10 12 13 12 14 11 12 22 24 21 27 34 39 45 51 50 48 55 65 66 60 54 54 61 68 75 88 83 71 68 64 66 76 76 72 74 80 76 68 60 56 61 67 76 85 83 80 79 82 84 84 82 75 76 83 85 84 80 79 73 69 67 53 44 48 47 41 39 43 46 48 49 47 47 44 38 39 42 41 38 31 24 18 15 18 21 27 34 40
14 14 13 13 12 12 9 7 8 11 13 11 12 11 11 28 39 36 40 44 43 47 51 52 51 55 66 72 66 59 56 61 64 66 80 83 71 65 59 56 63 69 66 65 64 57 53 51 54 62 65 73 77 75 79 82 85 86 86 83 71 71 78 78 73 68 67 63 57 57 52 50 51 51 48 42 41 41 45 55 52 45 42 39 43 41 30 24 19 14 13 20 30 33 35 43 49
14 14 14 14 11 10 8 7 8 10 13 10 10 12 9 24 41 42 44 47 43 40 43 48 49 53 65 69 65 63 63 64 62 61 71 77 70 65 62 59 64 70 68 67 64 57 57 57 58 61 62 71 74 75 84 86 88 88 86 83 76 73 71 70 68 61 59 58 56 56 54 54 50 48 47 40 42 42 40 47 44 41 44 37 31 25 17 15 13 13 16 26 38 41 40 46 52
13 12 14 13 9 9 8 6 7 10 13 11 9 10 10 25 41 39 36 36 35 35 39 46 50 53 61 63 60 60 64 65 61 63 71 73 70 65 61 63 67 69 68 66 65 61 60 60 63 65 68 76 74 75 87 87 84 84 83 85 84 80 73 73 75 70 66 64 62 58 53 52 47 41 37 32 34 34 33 36 32 31 32 26 20 17 15 13 13 17 19 26 38 44 44 46 49
13 11 12 11 9 8 7 7 6 10 14 11 11 10 8 26 44 39 31 32 35 37 37 44 52 56 58 57 53 51 53 56 57 60 64 67 71 70 66 69 70 68 67 65 62 59 56 55 60 65 70 77 70 68 79 81 78 80 84 86 86 82 77 77 75 67 67 67 60 51 41 36 33 29 28 27 26 25 25 26 24 23 21 19 17 15 14 12 15 19 21 25 30 33 37 40 42
13 11 10 10 9 7 8 7 6 9 13 12 11 7 9 36 59 52 42 41 43 41 38 43 51 56 59 55 49 47 43 42 48 53 57 65 72 71 68 70 71 66 64 64 61 59 57 57 62 64 67 73 71 71 75 72 72 78 85 85 82 77 73 72 64 56 63 65 51 37 29 26 27 27 26 25 24 24 24 23 22 22 20 19 17 15 14 12 14 16 17 19 19 18 21 25 28
13 12 10 9 9 8 7 7 6 7 11 12 8 9 30 61 76 68 56 52 52 49 41 43 53 59 59 51 44 46 43 36 37 44 56 65 66 67 70 69 67 64 62 61 59 58 58 61 66 68 69 70 71 76 80 74 70 74 78 76 71 69 69 67 59 55 59 54 39 30 27 26 26 26 25 24 24 23 23 22 21 21 19 18 16 15 14 13 14 14 14 15 16 15 15 16 17
14 13 11 10 10 8 7 7 7 7 11 11 6 18 56 78 77 70 57 48 52 50 40 40 51 56 57 53 45 46 49 45 38 40 52 59 58 64 72 70 65 62 61 59 57 57 57 60 65 68 68 67 68 73 78 78 74 70 68 67 64 63 64 62 55 54 50 39 33 30 27 25 24 24 25 24 24 23 22 22 21 21 19 17 17 16 15 15 14 14 14 14 15 15 15 15 16
13 13 12 11 10 8 8 8 7 9 11 12 7 14 48 73 75 72 57 44 48 48 40 40 44 52 60 60 57 56 58 60 53 50 54 54 55 64 71 71 66 59 57 56 55 58 62 63 66 68 67 67 69 70 71 72 72 70 65 65 65 63 62 59 53 49 41 32 31 28 24 25 24 24 24 24 24 23 22 22 21 21 19 18 17 17 16 17 16 17 17 17 18 17 17 17 17
12 12 12 12 12 8 8 8 9 12 10 11 11 7 30 68 78 71 57 42 44 48 44 42 42 51 62 61 63 65 63 67 63 55 53 49 53 65 71 71 66 59 58 58 58 61 66 66 67 69 69 67 66 66 67 66 66 69 67 65 63 60 60 59 56 47 37 32 30 28 26 25 24 23 24 24 24 23 23 23 22 21 20 18 18 18 18 19 19 20 20 19 21 20 19 20 19
11 12 13 15 14 9 8 8 10 13 10 11 12 6 26 65 76 71 62 45 41 45 44 47 45 46 56 58 65 72 68 68 62 48 44 48 58 71 73 70 66 62 61 61 63 65 65 65 65 66 67 68 68 65 65 63 60 60 64 65 60 59 62 58 50 41 35 32 29 27 25 22 23 23 23 24 23 23 23 23 23 22 20 19 19 19 19 20 20 20 21 21 21 21 21 21 21
11 13 15 16 14 10 7 7 9 10 11 13 12 8 15 40 62 71 69 58 47 41 38 47 50 45 50 55 61 73 74 70 63 50 47 54 66 73 73 71 68 64 62 62 64 64 64 64 63 63 65 68 70 66 61 57 56 58 63 63 55 58 63 52 39 35 34 33 29 26 24 23 24 23 23 24 24 24 25 24 24 22 21 20 20 21 20 21 21 21 21 21 21 22 21 22 22
12 14 14 13 13 11 10 10 9 8 13 14 12 11 6 16 49 69 72 69 55 38 35 45 50 47 53 60 60 64 69 71 67 59 56 60 68 74 74 71 67 63 61 59 59 58 59 61 61 63 66 68 68 62 55 52 54 59 58 52 49 54 53 42 35 35 34 33 29 26 25 24 24 24 25 25 25 27 26 26 26 24 23 22 21 22 22 22 23 23 23 23 22 22 22 22 22
13 13 11 11 11 11 13 13 10 9 15 16 10 12 6 9 41 60 59 57 43 33 42 59 65 54 52 67 66 55 57 63 60 56 57 60 69 76 75 69 63 62 62 59 58 58 57 59 61 62 64 65 62 55 51 50 49 47 42 40 45 48 43 38 37 35 35 35 31 28 26 24 25 25 26 27 27 28 28 27 28 27 26 25 24 24 24 24 24 24 24 23 23 22 22 22 22
13 12 10 11 11 11 14 13 13 14 16 15 9 11 8 9 35 50 47 46 40 37 46 59 71 62 56 73 73 58 56 54 52 56 57 59 69 74 72 67 60 60 65 65 62 60 58 59 60 59 59 58 54 49 45 42 38 38 40 43 46 43 39 39 37 36 38 36 31 27 25 25 26 26 27 28 28 28 28 28 28 28 28 27 27 26 25 25 24 24 24 23 23 23 22 22 22
14 13 10 12 12 14 18 16 16 15 14 13 10 11 9 9 29 45 44 47 49 51 49 47 55 54 54 71 71 57 52 50 56 66 63 62 69 68 65 64 57 58 67 68 64 60 55 57 57 55 53 48 43 39 34 34 38 42 44 45 45 41 38 37 36 38 38 33 29 26 25 26 26 27 27 27 28 27 28 28 28 28 27 27 26 25 24 24 24 24 24 23 23 23 23 22 23
15 13 11 13 14 19 24 20 17 17 14 12 10 11 9 8 22 35 37 42 47 51 53 50 53 50 51 66 69 59 52 50 57 65 65 64 65 63 65 61 52 55 65 65 62 58 52 51 51 48 46 39 32 30 32 37 42 41 41 43 43 39 36 37 38 38 34 29 27 26 26 27 26 27 27 27 27 27 26 26 26 26 25 25 24 23 24 24 24 24 23 23 23 22 22 21 21
12 11 11 14 14 18 22 18 17 19 14 11 11 11 9 8 17 27 33 40 42 45 50 53 56 57 58 64 64 57 52 49 49 53 60 63 61 63 66 57 50 55 64 64 59 53 48 49 49 44 41 37 33 36 41 43 40 39 41 42 39 34 35 38 39 36 31 28 27 27 27 27 26 27 27 26 26 25 24 24 24 24 24 23 23 23 24 24 24 24 23 22 22 21 21 21 22
11 9 12 15 14 14 15 13 17 20 16 13 11 9 13 16 18 23 31 37 38 42 49 51 53 59 62 64 61 54 50 50 47 47 58 66 65 67 63 52 52 60 66 66 59 49 44 47 52 51 49 47 46 49 50 48 45 44 44 41 35 33 36 39 38 34 30 27 27 28 27 26 26 26 25 24 23 22 23 22 22 23 22 23 23 23 24 24 23 23 22 22 22 22 21 21 21
11 10 13 15 14 13 13 14 18 22 21 17 10 10 21 25 22 24 32 36 37 41 48 52 56 59 60 65 66 58 53 54 50 49 61 70 69 68 61 54 59 67 68 65 57 47 41 44 53 55 55 55 53 50 48 48 48 46 44 39 34 35 39 40 38 35 31 28 28 28 27 26 26 25 24 23 22 22 22 22 22 22 22 23 23 23 23 23 23 22 22 21 20 18 17 16 14
11 11 13 14 14 13 12 15 21 24 23 17 11 12 21 25 27 31 32 34 36 41 50 56 59 59 57 60 60 55 57 59 56 60 69 72 69 68 64 63 69 71 67 62 54 45 43 50 58 58 58 57 53 48 47 48 48 45 42 37 33 35 39 39 38 37 33 30 29 28 27 26 25 25 24 22 21 22 21 21 22 22 23 23 23 23 23 23 23 22 19 16 13 10 8 6 5
11 10 13 14 15 14 12 15 22 24 24 20 13 12 14 17 28 35 35 35 36 43 52 54 55 59 56 52 50 53 60 64 66 71 71 69 71 71 68 68 72 71 65 60 52 45 45 53 60 61 60 57 52 49 49 48 46 43 38 33 31 34 37 40 40 40 37 33 30 29 27 27 26 25 23 22 22 21 21 21 22 22 23 23 23 23 24 23 22 18 12 7 4 2 1 1 1
13 11 13 13 13 13 12 13 17 20 22 21 17 15 12 13 24 33 34 35 37 41 45 46 52 56 52 48 47 51 56 60 68 70 66 69 76 76 72 69 70 70 65 58 49 42 42 48 57 63 64 62 57 52 48 45 41 36 33 30 29 32 37 40 41 42 43 38 32 30 28 27 27 25 23 22 21 21 21 21 21 22 22 22 23 23 23 22 16 9 4 1 1 1 0 1 1
14 12 11 12 12 11 11 13 14 15 19 21 21 19 14 12 21 31 31 33 36 38 40 45 50 49 46 48 48 50 56 63 69 68 66 74 83 80 75 72 73 71 64 56 48 41 39 39 44 53 59 62 59 53 48 44 38 33 31 29 29 32 36 39 41 44 46 42 34 30 29 28 27 25 22 21 21 20 20 21 21 22 22 23 24 24 21 16 8 2 1 0 1 1 0 1 1
14 12 10 11 12 11 12 15 13 12 15 18 20 20 16 13 19 27 31 33 34 35 42 50 52 50 50 54 54 55 60 69 75 73 69 74 81 80 74 71 72 69 61 53 46 41 37 32 33 40 47 50 49 47 44 40 37 34 32 31 31 33 36 39 44 48 50 47 38 32 31 30 28 25 22 20 21 20 20 20 21 21 23 24 24 22 16 8 2 1 1 1 1 1 1 1 1
Wind_Speed
23 23 22 22 22 24 20 14 16 15 15 20 20 21 20 21 20 19 17 14 17 11 2 7 4 5 7 7 7 10 12 13 11 9 8 8 7 7 9 5 2 9 17 18 19 17 17 16 14 14 12 12 10 9 8 8 7 7 5 4 3 2 2 3 4 5 7 8 8 9 10 10 10 11 12 13 13 14 14 15 15 15 15 15 15 15 15 14 14 14 13 13 12 11 10 10 9
24 24 23 24 23 23 20 13 16 18 17 21 21 21 20 18 18 19 16 10 7 3 10 6 3 2 6 6 5 10 8 8 11 10 9 9 8 8 9 7 5 10 16 19 19 18 17 16 14 14 13 12 11 9 8 8 7 6 6 5 3 2 1 1 2 4 5 6 7 8 8 8 9 9 10 11 12 13 13 13 14 14 14 14 15 15 14 14 14 14 14 14 13 13 12 11 11
25 25 24 24 22 19 20 15 17 20 19 21 21 21 20 19 20 19 14 5 5 8 5 1 4 3 5 7 6 8 4 5 9 10 10 10 12 12 10 9 7 10 16 19 20 18 17 16 15 14 13 12 11 10 8 8 7 6 6 5 4 3 2 1 1 2 3 4 6 6 7 7 7 8 9 9 10 11 11 12 13 13 13 14 14 14 14 14 14 14 14 14 14 14 14 14 13
27 26 25 24 22 17 17 17 19 21 21 22 22 21 21 22 22 17 8 9 5 2 2 3 5 5 7 8 7 8 6 7 9 11 12 12 14 15 12 10 8 10 16 19 21 19 18 17 15 14 13 12 12 11 9 8 8 7 6 5 5 4 3 2 2 1 2 3 4 5 5 6 6 6 7 8 8 9 10 11 11 12 12 13 13 13 13 13 14 14 14 14 14 14 14 14 15
28 26 25 24 22 17 16 19 20 22 24 21 22 22 21 20 19 16 4 2 6 3 5 6 7 8 10 10 9 10 11 12 11 13 15 15 15 15 14 10 9 11 15 19 21 20 20 18 16 15 14 13 12 11 10 9 9 8 7 6 5 4 3 3 3 2 2 2 3 4 5 5 5 6 6 7 7 7 8 9 10 11 11 12 12 12 12 13 13 13 13 13 14 14 14 14 14
29 28 27 26 25 21 18 21 22 24 26 22 24 23 21 22 22 23 14 6 7 9 11 13 10 8 13 16 17 16 16 14 11 13 16 16 17 17 14 11 9 12 15 19 22 22 21 19 18 16 15 14 13 12 11 10 9 8 7 6 5 5 4 4 4 4 3 2 2 3 4 4 4 5 5 5 6 6 7 7 8 9 10 10 11 11 11 12 12 12 12 13 13 13 14 14 14
30 28 24 22 23 22 22 25 26 28 28 26 26 26 24 26 26 27 24 18 13 10 11 12 11 10 15 18 18 17 15 14 13 15 17 18 20 17 13 12 11 12 15 19 23 23 22 21 19 18 16 15 14 13 12 11 10 8 7 6 6 5 5 5 5 4 4 3 3 2 3 3 3 4 4 4 5 5 5 6 7 7 8 9 10 10 10 11 11 11 11 12 12 13 14 14 14
30 29 21 17 18 19 21 25 28 30 30 29 29 30 28 29 28 24 23 21 15 10 8 9 11 12 15 17 19 20 16 16 17 15 15 18 21 17 14 14 15 14 15 20 23 24 24 22 20 19 17 16 15 14 12 12 10 9 8 7 7 6 5 5 5 5 4 4 3 2 2 2 2 3 3 3 4 4 5 5 5 6 7 8 8 9 9 10 10 10 10 11 11 12 13 13 14
30 29 25 22 22 23 25 26 28 28 29 30 30 31 31 32 30 24 22 19 15 14 12 12 13 12 15 20 23 23 19 19 17 15 17 19 19 17 16 16 17 15 15 21 24 24 24 23 21 19 18 17 15 14 13 12 12 11 10 9 8 7 5 5 4 4 4 4 3 2 2 2 2 2 2 3 3 3 4 4 4 5 6 6 7 8 8 8 9 9 9 9 10 11 11 12 13
27 27 24 22 23 27 29 29 28 28 28 28 29 30 30 33 32 31 27 19 15 16 16 15 14 11 15 20 21 21 19 18 15 14 18 17 16 16 17 18 17 14 14 21 25 25 25 23 22 20 19 17 16 15 14 13 13 12 11 10 8 7 6 5 4 4 4 4 3 2 2 2 2 2 2 2 2 3 3 3 3 4 5 5 6 7 7 7 8 8 8 8 9 9 10 10 11
22 21 20 21 23 27 29 29 29 29 29 29 29 29 28 31 35 35 27 17 14 18 18 16 17 15 18 20 19 21 19 17 16 16 19 18 16 16 17 19 16 14 15 19 24 24 24 23 22 21 19 18 16 15 15 14 13 13 12 10 9 8 6 5 5 4 4 4 3 2 2 2 2 2 1 1 2 2 2 2 3 3 3 4 4 5 6 6 6 6 7 7 7 8 8 8 9
20 18 19 22 24 26 27 27 29 29 29 30 30 29 29 31 34 28 19 19 18 19 19 18 18 15 19 22 19 21 20 19 18 18 21 19 17 16 18 19 16 16 16 17 23 24 24 23 22 21 20 18 17 16 15 14 14 13 12 11 10 8 7 6 5 5 5 5 4 2 2 2 2 2 2 1 1 2 2 2 2 2 2 3 3 3 4 4 5 5 5 6 6 6 6 7 7
22 19 20 23 24 24 27 27 27 27 28 28 28 30 28 28 30 21 12 15 17 19 19 17 17 15 20 21 19 22 20 18 18 18 19 18 17 17 17 18 17 16 15 17 23 23 23 23 22 21 20 19 17 16 16 15 14 13 13 12 11 9 8 7 6 6 6 6 4 3 2 2 2 2 2 1 2 2 2 2 3 3 2 2 2 2 2 3 3 4 4 4 4 5 5 5 5
22 20 21 24 23 23 25 27 26 26 27 26 26 28 26 23 22 17 13 13 14 18 18 15 15 19 25 23 20 22 21 18 18 18 17 17 17 15 16 18 18 15 14 17 21 22 22 23 22 21 20 19 17 17 16 15 15 14 13 12 11 10 9 8 7 7 7 6 5 3 3 2 2 2 2 2 2 2 2 3 3 3 3 3 2 2 2 2 2 2 3 3 3 3 3 3 4
22 20 21 23 24 24 24 24 24 25 25 21 20 24 21 20 19 15 16 18 17 15 15 15 15 20 27 26 22 21 21 20 19 19 17 17 15 15 17 18 16 14 14 17 20 21 21 22 21 21 20 19 18 17 17 16 15 15 14 13 12 11 10 9 8 8 8 7 6 4 4 3 3 3 3 3 3 3 3 3 4 3 4 4 4 3 3 3 3 3 3 3 3 3 3 3 3
21 20 21 24 24 25 23 22 22 23 24 19 16 17 14 16 23 21 18 18 17 15 14 14 15 19 23 22 21 20 20 20 20 19 17 17 16 17 18 16 13 13 14 17 20 20 20 20 21 21 20 19 19 18 18 17 16 16 15 14 13 12 11 10 9 9 9 8 7 5 5 4 3 3 3 3 3 4 4 4 4 4 5 4 5 5 4 4 5 4 5 5 5 5 5 5 5
19 21 23 25 26 25 23 21 21 20 19 20 20 16 12 11 16 17 16 15 15 15 14 13 15 18 21 19 19 20 20 20 21 19 17 17 17 19 18 16 15 14 16 19 19 19 19 20 21 21 21 20 20 20 19 18 17 17 16 15 14 13 12 12 11 11 10 9 8 7 6 5 4 4 4 4 4 4 5 4 5 5 6 5 5 5 6 6 6 6 6 6 8 9 8 8 8
20 23 25 26 27 26 24 22 21 19 15 19 23 15 11 9 8 11 13 13 13 14 12 14 17 18 22 25 24 22 20 21 21 19 18 18 19 20 19 17 15 15 16 18 19 18 19 21 21 21 21 21 20 19 19 19 18 18 17 16 15 14 13 13 12 11 11 10 9 8 7 6 5 4 4 4 5 5 5 5 5 6 6 7 6 6 6 7 7 8 8 8 10 11 11 11 11
24 23 26 28 27 24 24 22 21 22 20 19 16 12 13 11 9 10 9 9 11 12 11 16 22 20 22 26 24 21 22 23 22 21 19 19 20 20 19 17 15 15 15 17 17 17 19 20 21 21 21 20 20 19 19 19 19 18 18 17 16 15 14 14 13 12 12 11 10 9 7 7 6 5 4 4 5 5 6 6 6 6 7 8 8 8 8 8 8 8 9 10 10 12 13 14 14
27 25 27 28 27 24 23 23 23 23 21 14 6 7 13 12 12 12 10 10 12 13 13 19 25 25 25 25 23 21 23 26 23 22 21 20 20 19 18 17 16 15 15 16 16 16 18 19 19 20 20 20 20 19 19 19 19 19 18 17 16 16 15 15 14 14 13 12 11 9 8 8 7 6 5 5 5 5 6 7 7 7 8 8 9 9 10 10 10 10 10 11 11 12 14 15 15
26 28 29 26 23 25 24 23 23 21 18 14 7 3 8 9 12 15 13 13 14 15 15 21 29 30 28 26 25 23 24 27 25 24 24 22 20 19 18 16 15 16 16 16 17 17 17 16 17 18 18 19 19 20 20 19 19 18 18 18 17 16 15 15 15 14 13 12 10 9 8 8 7 7 6 6 6 6 7 7 7 7 8 9 8 9 11 11 12 12 12 12 12 13 14 14 15
25 29 30 26 23 23 23 22 21 19 19 20 16 9 7 7 10 13 14 15 15 14 13 21 30 29 26 27 27 25 25 29 28 26 25 23 21 20 18 17 17 18 18 18 17 17 17 16 16 17 17 17 17 19 19 19 18 18 18 17 16 16 15 15 15 14 12 10 9 8 8 7 7 8 7 7 7 7 7 6 6 6 6 7 8 8 9 11 11 12 12 13 14 14 15 15 15
26 27 28 27 27 26 21 18 18 17 18 21 20 15 11 9 12 14 14 16 15 12 12 19 30 29 26 26 28 27 27 31 30 28 26 23 22 21 20 20 20 20 20 20 19 18 18 18 17 18 17 16 16 17 17 17 17 17 17 16 16 15 15 14 13 12 10 8 8 8 8 8 8 8 7 7 6 6 5 5 5 5 6 6 7 8 7 8 8 9 10 11 13 14 14 14 14
29 27 26 25 27 30 26 18 15 17 19 19 18 17 17 15 17 17 15 16 15 16 16 18 26 30 28 26 28 29 30 31 30 28 26 23 22 23 23 22 23 21 21 21 20 19 19 19 19 18 17 17 16 15 15 16 16 15 15 15 14 14 13 12 11 10 9 9 9 9 9 9 9 7 7 6 6 7 6 5 5 6 7 7 7 7 7 6 6 7 8 8 9 10 11 12 13
31 29 25 24 25 28 28 24 18 16 18 20 19 18 19 18 18 18 17 16 14 19 23 22 23 26 28 25 26 31 32 32 31 29 27 25 24 25 24 24 24 22 22 21 20 20 20 20 20 18 17 18 17 15 15 16 15 13 12 12 12 12 12 11 10 9 10 10 10 10 10 10 8 7 7 5 5 6 5 4 5 5 6 6 6 6 6 6 6 6 7 7 8 9 10 10 12
29 29 27 25 25 24 25 27 25 20 17 17 19 20 21 19 18 20 19 16 14 19 27 28 25 25 27 26 26 30 32 33 32 30 29 29 28 27 26 25 25 24 22 21 20 20 19 19 20 18 17 18 16 15 14 14 12 11 11 11 11 11 11 10 9 9 9 9 10 10 9 7 6 5 7 5 3 3 3 3 3 3 4 5 5 5 5 5 6 6 7 7 9 10 10 10 11
23 25 27 27 27 24 23 24 25 25 21 18 18 20 21 20 20 22 21 19 17 18 26 29 27 24 26 26 26 29 33 34 31 29 29 30 29 28 27 25 24 24 22 20 20 20 19 20 20 18 18 16 15 14 13 11 10 11 11 10 11 11 10 10 9 9 9 9 9 8 6 4 4 4 4 4 2 2 3 4 3 2 3 4 5 5 5 6 6 7 8 8 9 10 11 11 12
22 22 23 27 28 27 25 23 23 24 22 21 20 21 21 21 23 25 21 19 19 20 25 26 27 27 25 26 27 29 32 31 27 26 28 29 29 28 27 25 24 24 23 21 21 22 22 21 19 18 17 15 14 13 11 10 10 11 10 10 10 10 9 9 9 9 9 8 7 5 3 3 2 1 1 2 2 2 2 2 2 3 3 4 5 6 6 7 8 8 9 9 10 11 11 13 13
24 23 22 22 25 29 29 26 24 24 23 21 20 23 26 25 25 25 21 20 18 21 23 19 23 30 29 30 29 27 26 24 21 24 28 28 29 29 28 27 24 24 23 21 22 23 22 20 19 17 16 15 14 11 10 11 10 10 10 10 9 9 9 8 9 9 8 7 5 4 3 2 1 2 2 2 2 2 1 1 2 3 5 5 6 8 8 8 9 9 10 10 10 11 11 12 13
25 24 24 21 22 28 30 28 25 24 24 21 19 24 28 27 27 24 21 21 18 22 25 24 23 25 28 32 31 26 24 23 21 24 28 28 27 28 30 28 25 25 23 21 22 23 21 19 18 16 15 14 12 11 11 11 10 10 10 9 8 7 7 8 8 7 6 5 4 4 3 3 3 2 2 2 2 1 1 1 2 4 5 7 8 8 9 9 9 9 10 10 11 11 12 13 13
24 23 24 24 24 25 26 28 27 24 23 22 21 25 25 22 24 24 24 23 24 27 28 26 23 21 22 25 27 26 24 24 23 24 28 27 23 23 27 27 24 23 22 21 21 22 20 18 16 15 14 13 12 12 11 10 10 10 8 7 6 6 6 7 7 6 6 5 5 4 4 4 4 3 2 1 1 1 2 3 4 5 6 8 9 9 9 9 9 10 10 11 12 12 12 13 14
23 25 26 27 25 22 22 27 30 27 23 22 24 26 23 19 20 25 28 28 30 31 27 24 24 22 19 20 23 24 23 25 24 24 26 24 19 17 20 22 21 20 20 20 19 19 18 16 15 14 14 13 13 12 11 9 9 8 7 7 7 7 7 7 7 7 6 6 6 6 5 5 4 4 2 1 1 1 2 4 5 6 8 8 9 9 9 9 10 10 11 12 13 13 14 14 15
25 27 27 25 26 23 21 25 31 30 25 24 26 26 20 19 24 25 28 34 33 31 29 25 24 21 20 20 23 25 25 26 24 23 21 18 17 14 13 14 15 15 15 16 16 16 14 12 12 12 12 12 12 11 10 8 9 8 8 8 8 8 8 8 7 7 7 8 8 7 6 5 4 3 2 2 2 2 3 4 6 7 8 8 9 9 9 10 11 11 12 14 15 16 15 16 16
27 28 26 23 24 24 22 23 28 31 28 25 27 27 20 18 26 27 28 36 34 29 26 24 23 23 21 19 20 23 25 23 22 21 17 14 14 12 10 10 11 11 10 9 10 9 8 7 9 11 11 11 10 10 9 8 10 10 9 8 8 9 10 8 8 8 7 7 7 7 6 6 4 3 2 2 2 3 4 4 6 7 7 8 9 9 9 10 12 13 14 15 16 17 16 16 16
25 26 26 24 22 23 25 24 25 30 29 26 25 28 25 20 22 24 27 29 25 24 23 20 22 25 22 17 15 17 20 21 21 19 16 15 14 11 10 10 11 12 10 8 6 6 7 9 11 11 10 10 10 9 8 9 10 10 9 8 10 11 11 8 8 8 9 10 10 9 8 6 4 3 2 3 3 4 5 5 6 8 7 8 8 10 11 11 12 14 14 14 15 15 15 15 14
24 23 24 25 23 22 25 26 23 28 28 27 26 26 26 25 23 22 23 23 19 20 21 20 22 24 20 15 14 16 19 20 20 20 19 18 16 13 11 11 11 11 10 9 6 6 10 11 11 11 11 11 10 7 8 9 10 10 9 9 11 11 10 8 8 9 11 12 12 10 7 5 4 2 2 4 4 5 5 6 7 8 8 8 9 10 12 13 13 13 13 12 12 13 14 14 13
22 23 22 24 25 23 24 26 22 26 26 26 27 25 23 25 26 23 21 20 19 19 20 20 21 21 17 14 14 15 18 18 18 19 19 17 17 15 13 12 10 9 11 11 7 7 9 10 9 9 11 11 8 8 10 11 10 10 10 10 10 8 8 9 9 9 8 8 6 5 4 3 2 2 3 4 6 6 7 7 8 8 9 9 10 10 12 13 13 12 11 10 10 11 12 13 12
23 23 23 24 26 25 22 25 24 25 23 22 25 25 22 24 26 24 22 19 16 15 16 18 18 18 15 13 13 12 13 15 16 17 16 17 18 17 14 12 9 8 10 10 8 7 7 9 10 10 11 10 8 11 13 11 10 10 10 10 8 7 7 8 7 7 6 5 3 3 2 1 1 2 4 5 7 8 8 8 8 8 9 9 10 11 12 13 13 12 11 10 10 10 11 11 11
27 23 24 24 25 27 24 24 27 25 21 19 23 24 21 22 22 19 20 19 15 13 12 13 16 18 16 13 13 14 12 13 16 16 16 18 20 17 15 12 9 8 8 8 8 9 7 8 9 9 10 10 10 12 11 9 8 10 11 10 8 7 7 7 7 6 5 2 2 2 2 2 3 4 5 6 7 8 8 8 8 9 9 9 11 12 13 13 12 12 12 11 11 11 12 12 11
31 24 24 23 23 27 26 24 26 24 20 17 20 20 14 18 22 20 20 18 15 12 11 11 13 15 14 13 14 16 16 15 16 18 17 18 18 16 15 12 9 8 9 9 10 10 9 9 8 8 9 11 11 10 8 9 10 12 10 9 8 8 7 7 7 6 5 3 2 3 3 3 4 5 6 7 8 8 8 9 9 9 10 10 11 12 13 13 13 13 12 12 12 12 12 13 13
32 27 23 21 22 25 25 23 23 22 19 17 18 17 14 18 21 20 19 18 15 13 11 12 13 14 14 17 18 16 15 16 18 20 21 19 17 16 16 13 11 11 11 11 11 11 11 10 10 9 10 13 13 9 8 10 11 12 11 10 9 8 8 8 7 6 5 4 4 4 4 4 5 7 7 8 8 8 9 9 10 10 10 10 11 12 12 12 13 13 12 12 13 13 13 14 14
30 29 26 21 19 23 27 26 22 22 21 21 22 16 14 20 21 21 21 19 16 14 12 13 15 17 18 20 20 18 16 16 17 20 22 20 18 18 17 15 14 13 12 11 11 12 12 12 11 11 12 14 14 11 11 11 11 12 13 11 9 8 10 9 7 5 5 5 5 5 5 5 7 7 8 8 8 8 9 9 9 9 9 10 10 11 11 11 12 12 12 13 13 14 14 14 15
28 28 27 23 18 21 28 26 22 22 20 21 25 21 11 18 22 22 22 20 17 16 15 16 18 19 22 23 22 22 21 20 21 20 20 20 20 20 18 15 13 13 13 13 13 13 13 13 13 12 12 13 13 12 11 11 11 11 11 10 9 9 9 7 5 6 7 6 6 6 6 6 7 8 7 7 7 7 8 8 9 9 9 9 10 10 11 12 12 13 13 14 14 15 16 16 16
26 24 27 27 22 21 26 26 24 21 17 17 25 28 16 15 23 23 23 22 20 19 19 19 21 22 24 25 23 23 23 24 24 22 21 21 22 21 17 13 12 12 12 12 13 12 12 12 12 12 10 10 12 12 12 12 11 10 9 9 10 10 8 5 6 7 8 7 7 7 7 7 8 8 7 7 7 8 8 9 9 9 9 10 10 10 11 11 13 14 15 15 16 17 17 18 18
24 21 26 28 22 19 21 23 22 20 15 16 24 29 19 14 26 28 24 26 25 23 22 21 23 26 26 25 23 24 25 25 23 21 21 21 21 19 15 12 12 11 11 12 12 12 10 10 10 11 11 11 12 14 15 14 12 10 10 10 10 8 7 7 8 8 8 9 8 8 8 8 8 8 8 7 8 8 9 9 10 10 10 10 10 10 11 12 13 15 16 17 17 18 19 19 19
24 19 24 28 22 18 17 19 24 22 15 16 22 28 20 11 26 33 26 27 27 24 24 24 24 26 26 26 26 26 25 23 21 19 19 20 19 18 15 14 12 10 11 12 12 11 9 8 9 10 13 14 15 17 18 17 14 12 12 12 10 9 8 9 9 10 10 9 9 8 8 8 8 8 8 8 8 9 9 9 9 10 10 11 11 11 12 14 15 16 17 18 18 19 19 20 21
26 20 21 25 22 21 18 20 23 18 12 19 24 26 23 11 20 36 31 27 25 24 25 28 27 26 26 27 28 28 25 22 20 19 20 21 20 19 17 16 13 11 12 12 11 11 9 9 10 11 13 14 17 20 19 17 16 15 13 11 10 10 9 10 11 11 10 10 10 9 8 8 8 8 8 8 8 9 10 10 10 10 10 11 12 13 14 15 16 17 18 19 19 20 20 21 22
29 23 19 21 21 21 18 18 16 10 10 23 27 25 25 15 15 29 30 25 22 24 28 31 30 28 27 27 28 28 26 22 21 21 21 22 21 21 20 17 15 13 11 11 12 12 11 11 12 12 13 15 18 20 19 17 17 16 13 11 10 9 10 11 11 11 11 10 9 9 9 8 8 7 8 8 9 10 10 10 11 11 11 12 13 14 15 16 17 18 19 19 20 21 22 23 23
32 28 21 18 15 14 13 11 10 10 10 18 24 24 23 19 18 23 24 22 23 25 26 29 31 30 29 29 29 29 27 24 23 23 22 22 22 21 21 18 16 14 10 10 13 13 13 14 15 15 16 17 18 18 18 19 17 15 12 11 10 10 11 11 11 11 11 10 9 9 9 8 7 8 8 9 10 11 11 11 11 11 12 12 13 15 16 17 18 18 19 20 21 22 23 24 24
35 31 25 20 11 8 9 7 7 9 11 15 22 23 20 17 18 20 22 24 26 26 24 26 29 28 28 30 30 28 27 26 25 23 22 23 22 21 20 20 18 14 9 10 14 14 15 16 17 17 16 17 18 19 20 18 16 14 12 11 10 11 12 11 12 12 11 10 9 9 8 7 8 9 9 10 11 11 11 11 11 11 12 13 14 15 16 17 18 19 21 22 23 24 24 25 25
33 29 26 24 17 10 8 8 8 9 11 17 19 16 14 15 13 17 23 24 24 25 24 26 27 27 28 29 28 26 25 25 25 24 25 25 24 23 22 21 18 13 10 12 14 15 17 18 18 18 17 18 20 20 18 16 15 14 13 12 12 12 12 12 13 12 11 10 9 9 8 8 9 9 10 11 11 11 11 11 11 11 12 13 14 15 16 18 20 21 23 24 25 26 26 26 26
29 27 27 27 24 17 11 11 10 7 7 13 15 13 11 11 9 15 24 22 23 27 25 25 26 28 29 27 24 23 23 24 24 24 27 27 26 25 24 22 18 13 11 13 14 15 18 19 19 19 19 20 21 19 17 16 16 16 14 14 14 13 13 13 13 12 11 11 10 9 9 9 9 10 11 11 11 11 11 11 11 12 13 13 15 16 18 20 22 24 26 26 27 27 27 27 27
26 28 31 30 26 19 15 13 9 4 4 8 15 14 10 9 8 14 22 21 24 26 25 28 30 31 30 27 25 23 24 25 22 23 27 28 27 26 25 23 18 15 14 14 15 16 18 19 19 19 19 19 20 19 19 19 18 17 16 15 15 14 14 14 14 13 12 12 11 10 10 10 10 11 11 12 12 11 11 11 12 12 13 15 16 18 20 22 25 27 28 29 28 28 28 28 27
25 29 30 26 21 18 16 11 6 5 6 7 16 19 15 13 10 14 20 22 24 27 29 31 32 32 30 28 28 25 24 23 22 24 27 27 27 27 27 24 19 17 17 17 18 19 19 19 18 18 18 19 19 20 20 19 18 17 17 16 16 15 15 15 14 14 14 13 12 11 11 11 11 12 12 12 12 12 11 12 12 13 15 17 19 21 23 26 28 30 30 30 29 27 26 25 24
26 25 25 23 19 18 18 12 6 7 7 5 14 20 19 18 16 19 21 22 24 29 30 28 28 31 31 29 28 25 24 23 23 25 26 26 28 29 28 25 21 19 19 19 20 21 21 19 18 18 19 19 19 19 19 18 18 18 17 17 17 17 16 16 15 15 15 14 14 13 12 12 12 12 13 12 12 12 12 13 13 15 17 19 21 23 26 29 31 31 30 27 25 24 22 21 21
27 22 24 26 21 18 18 15 11 10 6 6 11 14 16 19 20 22 23 23 25 27 26 26 31 33 30 28 28 27 25 24 23 24 24 26 29 30 28 25 21 20 20 21 22 23 21 18 17 18 18 19 19 19 18 18 18 18 19 18 19 18 17 17 17 17 17 16 15 14 13 13 13 13 13 13 13 12 13 14 15 17 19 21 23 26 28 30 30 28 26 23 21 20 20 20 21
29 26 28 29 24 20 18 18 20 15 7 6 7 8 14 19 19 21 24 25 25 25 26 31 36 34 30 28 28 27 26 26 25 23 23 26 30 30 28 25 21 22 23 23 23 23 21 19 17 17 17 18 19 18 18 18 19 19 20 20 20 20 19 19 19 19 18 17 17 16 15 14 14 14 14 14 14 14 14 16 17 19 21 23 25 27 29 29 27 24 21 20 20 20 21 22 22
27 25 26 29 27 23 15 14 21 21 12 9 7 7 12 17 17 19 24 26 24 24 27 33 36 34 30 30 29 27 27 28 26 25 25 27 30 30 28 25 23 25 25 23 22 23 22 20 18 17 17 17 17 18 18 19 19 20 20 20 21 21 21 21 20 20 19 19 18 17 16 15 14 14 15 15 15 15 16 17 19 21 23 24 26 27 27 25 22 20 19 20 21 21 22 22 23
Wind_Direction
289 292 297 299 303 304 308 324 308 289 270 266 263 263 262 265 259 258 273 282 281 280 142 187 228 314 288 316 325 311 299 291 278 250 243 256 268 234 225 250 211 195 195 192 193 188 186 186 183 179 176 176 176 172 162 157 151 150 153 149 154 124 78 59 61 65 68 71 69 68 67 63 62 60 58 58 58 58 57 57 58 59 60 62 62 61 60 58 58 59 60 62 65 68 70 70 68
288 290 296 297 300 304 305 307 288 281 274 272 269 267 270 274 266 263 276 319 322 170 108 131 212 323 306 304 286 304 301 279 279 256 252 261 263 247 249 256 213 204 201 193 193 190 188 187 186 183 179 179 181 180 173 168 163 163 168 172 179 176 155 42 50 59 63 67 64 65 66 63 60 59 59 57 57 57 56 56 57 58 59 60 61 62 62 62 62 62 64 67 69 70 70 70 70
286 289 294 296 301 306 305 296 274 272 269 268 268 266 267 267 260 256 259 285 53 86 98 165 272 278 312 317 274 284 292 263 274 262 257 264 272 265 262 251 221 210 204 196 193 192 189 190 189 185 184 182 185 187 183 180 177 177 184 191 195 200 214 272 360 40 51 57 58 61 61 60 59 57 59 58 56 56 56 55 56 58 59 60 60 61 63 63 64 65 67 69 70 71 72 73 73
283 287 290 293 297 295 290 277 264 266 264 263 266 266 264 268 262 248 243 247 231 79 347 309 305 290 288 300 295 279 265 266 278 282 265 253 265 263 261 255 230 213 207 198 194 193 191 192 191 189 188 187 189 192 192 190 188 190 198 206 213 220 230 256 283 335 26 42 47 53 54 55 55 54 55 56 55 55 54 54 56 57 59 60 60 61 62 64 65 66 68 70 72 73 74 75 76
282 285 286 288 287 284 277 269 263 260 259 260 263 263 262 266 260 250 277 290 254 288 306 309 310 309 286 266 266 256 253 265 273 282 266 244 246 254 261 257 234 217 211 201 196 195 193 193 193 193 193 193 195 197 200 198 198 200 208 217 227 237 248 263 276 298 336 15 30 41 45 50 49 49 50 52 52 52 52 51 54 57 59 60 61 62 63 65 66 67 69 72 75 77 78 79 79
281 282 285 285 281 277 267 262 260 257 257 258 262 264 263 261 257 263 283 326 320 300 288 293 290 293 286 273 263 248 247 262 268 267 264 255 244 247 252 248 236 222 218 208 200 198 194 194 194 196 197 198 200 203 207 206 207 208 215 224 235 245 253 265 275 290 306 332 6 27 35 44 42 44 43 47 49 49 50 49 51 55 58 60 62 63 64 65 67 69 71 75 77 80 81 80 80
279 280 284 284 280 274 260 256 256 257 258 257 261 264 266 266 266 275 283 289 297 300 305 300 279 272 278 275 263 252 250 254 262 258 260 260 246 241 238 236 236 226 225 213 203 200 196 195 195 198 200 202 204 207 211 212 214 215 221 228 237 246 252 264 273 286 300 315 343 7 19 34 33 37 35 38 42 44 45 44 47 51 56 59 61 63 65 67 69 70 71 75 78 80 82 82 81
276 275 275 266 264 264 254 254 255 256 258 258 259 262 264 264 267 274 280 283 277 278 305 308 291 282 269 263 262 262 258 259 267 259 252 250 243 239 231 229 231 228 229 217 208 204 199 197 198 200 201 203 206 210 214 215 217 217 222 228 235 243 248 261 271 284 298 309 326 345 355 12 20 26 25 28 34 36 38 37 40 46 52 54 59 61 63 68 70 72 71 73 77 79 82 83 83
272 270 266 256 252 255 253 255 257 256 257 258 258 259 260 262 267 265 267 272 264 263 273 285 290 279 261 258 265 265 259 267 270 250 240 242 241 238 232 231 229 226 225 216 209 206 202 200 200 202 204 205 208 212 216 217 220 219 222 226 232 238 243 255 266 279 291 301 314 325 329 343 360 11 9 13 21 28 31 32 33 38 46 50 55 58 61 65 67 70 71 70 73 78 80 82 83
266 264 260 252 250 253 254 254 257 258 257 259 258 257 257 259 261 257 258 259 250 258 267 272 268 260 260 254 252 253 255 267 264 237 230 236 240 233 231 234 229 225 222 214 209 207 204 203 203 204 207 208 210 214 218 221 222 223 223 226 231 235 238 244 256 270 281 292 296 300 308 323 335 345 353 356 5 16 17 20 22 31 41 47 51 55 59 60 62 63 65 67 67 73 76 79 81
252 250 247 243 243 247 251 253 255 258 259 259 259 257 256 257 258 256 255 252 252 260 266 267 256 250 251 244 243 250 256 269 261 233 226 235 239 229 230 234 230 227 226 213 208 207 205 205 206 207 209 211 212 215 219 223 225 227 227 228 229 231 234 236 247 258 268 278 278 286 300 306 314 315 328 342 345 355 354 360 7 21 36 41 47 53 56 55 56 55 54 58 59 63 68 72 76
229 228 230 233 239 244 249 253 255 259 260 259 258 257 255 254 254 253 244 246 258 266 267 261 253 244 239 238 245 255 257 266 259 232 224 230 230 227 231 233 229 228 225 210 205 206 206 207 208 209 212 212 213 217 221 224 226 228 227 229 229 229 231 231 238 249 258 266 269 277 284 292 304 303 307 322 320 322 325 331 342 351 17 31 37 42 51 52 51 51 47 48 49 51 53 58 64
220 218 223 233 238 244 249 252 256 259 260 258 258 257 255 251 247 242 232 244 255 265 266 257 250 239 236 239 241 248 253 259 252 230 220 218 221 224 223 227 229 227 221 207 203 206 207 208 210 211 214 215 215 218 222 226 228 228 227 229 229 229 229 228 233 242 253 260 264 268 271 279 282 293 295 294 286 281 295 305 318 323 330 356 16 18 26 37 40 40 37 36 37 37 39 41 43
217 216 224 238 241 243 248 252 254 257 259 258 259 259 255 246 237 228 228 246 261 267 263 250 243 237 239 242 239 245 253 256 243 228 217 212 219 210 208 224 231 229 219 206 203 206 210 210 211 212 214 217 217 219 224 227 230 231 229 229 230 230 228 228 231 239 249 254 256 257 258 259 254 264 265 262 263 262 271 284 296 303 308 313 319 334 341 346 355 11 14 15 10 11 16 15 15
214 215 230 240 244 244 243 248 251 255 258 259 260 255 243 232 224 221 234 252 262 262 259 249 236 238 244 246 245 248 253 251 233 220 210 211 211 197 209 229 233 229 218 206 203 208 212 212 212 213 214 216 217 220 225 227 230 231 231 230 230 231 230 228 229 235 243 247 249 251 250 251 251 255 258 257 257 258 255 265 279 285 294 298 301 304 303 307 311 321 331 329 326 328 328 326 327
214 215 232 239 242 244 242 245 248 251 255 257 264 252 227 224 232 238 244 253 259 252 249 248 234 239 248 246 241 243 246 244 228 212 204 206 201 198 217 229 226 220 209 203 205 210 212 212 213 214 215 216 217 220 223 226 229 231 232 232 231 232 230 229 227 231 240 246 246 246 248 248 249 250 256 259 258 263 257 253 265 274 281 287 291 292 290 292 294 300 307 309 307 304 301 299 299
218 218 230 236 237 239 241 243 246 251 253 251 257 256 238 232 238 243 247 251 259 250 239 247 241 232 238 239 233 235 240 235 220 207 203 204 200 205 219 220 214 209 203 202 208 210 209 212 214 215 216 217 219 222 224 227 229 230 233 232 232 232 230 230 230 232 238 244 246 247 248 249 249 251 254 257 250 253 258 252 251 262 272 278 283 286 288 289 289 290 291 297 301 300 298 296 296
215 219 227 233 233 235 237 240 248 255 260 254 251 250 232 219 225 241 253 253 249 241 230 241 233 208 216 232 238 238 233 221 210 207 207 207 206 210 215 215 212 208 203 204 209 207 206 212 214 216 219 219 222 225 226 229 230 232 233 235 234 233 232 233 232 232 237 241 246 249 249 250 251 250 247 251 252 251 257 257 253 255 262 267 272 275 281 284 286 286 282 285 293 297 299 300 299
214 218 227 231 232 234 238 242 247 250 255 256 244 223 214 213 224 238 248 247 242 238 223 227 225 208 213 229 238 237 225 214 207 209 212 213 214 213 214 213 211 207 204 205 208 206 205 211 213 217 219 221 225 226 228 230 232 233 234 236 235 234 235 236 234 231 236 240 244 248 252 255 255 251 245 250 262 266 266 269 269 265 265 265 267 268 270 272 274 277 279 282 287 293 298 299 298
216 218 228 231 233 236 241 243 243 249 253 252 233 207 220 222 228 232 238 244 245 241 220 218 227 226 227 231 236 232 218 212 210 212 217 216 214 212 212 211 207 205 203 204 206 208 209 211 214 217 219 221 224 226 229 230 232 234 236 237 237 238 238 238 238 236 238 243 245 247 252 259 265 267 268 269 270 274 276 279 279 275 273 271 269 270 269 267 268 269 274 278 282 288 294 295 295
217 220 228 231 233 238 241 242 243 251 251 242 256 261 229 222 233 238 241 248 246 240 225 222 234 233 230 231 234 232 216 209 210 211 216 215 209 207 207 204 203 202 201 202 204 209 214 215 216 218 222 223 223 226 229 230 233 235 238 240 240 242 243 244 245 245 246 247 246 247 253 263 273 278 283 286 283 281 281 283 282 283 282 279 278 276 272 270 269 270 271 273 277 281 286 290 295
219 222 228 231 232 236 239 242 244 247 243 238 247 258 244 231 244 243 235 241 238 237 233 229 239 237 229 230 234 235 217 207 210 210 213 214 208 203 202 200 198 199 200 203 205 209 214 215 217 220 226 228 224 225 227 230 234 237 240 242 244 246 247 249 250 251 251 250 246 247 255 264 272 280 283 284 287 285 285 285 286 290 288 285 287 283 278 274 272 273 272 272 275 278 282 286 291
221 227 230 231 232 236 239 244 245 243 239 238 243 249 254 251 248 243 237 241 230 232 237 227 237 237 230 233 236 232 212 205 212 213 212 211 207 201 200 199 200 201 199 201 207 212 214 215 219 222 226 230 228 226 228 231 234 237 241 243 246 249 249 250 252 255 253 247 244 248 254 259 265 273 272 270 283 291 295 300 301 303 296 297 300 297 297 288 278 275 272 270 273 275 278 283 288
222 229 230 231 233 237 240 245 248 243 236 236 244 250 255 253 247 245 244 247 235 240 243 225 232 235 229 234 235 225 208 208 214 210 207 206 205 201 200 201 200 202 199 201 209 212 215 216 219 222 224 228 230 231 231 235 239 239 240 245 248 250 251 250 251 253 246 242 244 249 251 255 262 267 266 276 300 300 304 314 317 319 317 325 328 321 323 316 304 294 288 282 279 280 283 291 298
223 228 230 231 233 237 240 242 244 244 239 237 242 248 249 243 242 244 245 248 240 244 246 232 228 229 226 230 230 218 207 212 213 204 200 199 202 201 199 201 198 198 200 203 210 213 216 217 219 221 223 226 231 234 235 240 246 247 245 247 250 250 250 248 246 243 242 245 247 250 252 257 269 276 280 302 315 300 314 338 335 337 330 339 349 342 341 332 321 316 309 301 298 298 298 301 303
223 227 231 232 234 237 239 239 238 240 243 241 241 242 241 238 241 245 243 238 232 238 245 238 228 222 222 227 230 221 215 218 213 201 199 196 197 199 197 199 200 198 202 206 211 213 215 217 219 219 221 227 233 238 241 247 252 252 251 248 248 248 247 248 247 245 246 247 247 251 256 263 278 290 302 319 316 300 345 18 7 360 347 353 1 353 345 331 324 325 319 310 307 305 303 302 300
225 228 232 234 235 235 237 240 235 234 239 238 238 241 242 241 241 244 242 234 226 229 240 237 230 224 224 229 232 228 225 221 211 200 200 198 194 198 198 200 202 202 204 209 212 213 213 215 215 215 221 228 235 241 246 251 249 248 250 247 247 249 249 251 249 246 245 243 245 250 259 274 292 306 325 348 30 11 18 33 28 22 5 356 354 347 337 327 327 326 321 314 308 306 306 303 299
229 230 234 234 234 236 236 238 231 229 235 235 239 245 245 241 238 239 239 236 229 226 236 235 231 233 230 231 232 229 227 221 210 202 202 200 196 198 202 203 202 202 205 207 209 209 210 212 212 213 220 228 234 241 244 242 239 242 247 246 248 251 251 250 247 243 238 237 241 247 265 283 295 320 47 52 75 52 28 33 7 351 345 340 337 335 329 325 324 319 315 310 307 306 304 302 299
231 231 237 236 233 236 234 233 230 229 234 236 238 243 243 238 236 238 235 239 237 225 227 221 222 233 235 236 235 231 232 228 218 211 207 205 202 199 201 203 202 201 200 199 204 206 207 209 211 213 217 225 233 238 238 237 237 239 242 244 249 251 249 245 241 237 232 232 234 243 256 248 213 149 147 136 122 132 98 40 342 331 328 331 329 324 322 322 320 317 313 308 305 303 300 297 295
230 229 233 234 233 235 231 228 227 229 233 229 227 237 241 236 236 237 233 236 230 212 209 199 197 211 221 232 233 227 233 231 220 216 212 207 204 200 198 199 198 199 197 195 201 205 207 209 210 215 218 221 228 230 232 235 236 237 239 244 251 248 240 237 235 233 230 228 232 240 219 179 179 165 153 136 114 107 23 357 340 327 322 326 324 320 321 320 317 315 312 308 305 302 298 297 297
224 225 227 227 232 235 228 223 222 224 228 221 219 236 242 240 238 234 232 232 221 214 211 207 209 212 214 225 226 222 226 223 212 210 211 206 201 199 198 197 194 197 199 196 199 202 205 209 210 214 218 220 224 227 231 234 238 241 244 245 242 237 228 230 234 229 224 218 220 223 193 173 174 161 145 121 55 5 350 342 333 324 321 322 321 321 321 320 318 315 312 309 308 306 303 302 301
217 218 222 222 228 236 228 220 218 220 222 215 218 233 241 241 235 227 222 218 216 223 227 228 237 237 228 226 226 230 233 226 219 212 209 207 203 197 199 198 194 196 200 194 192 195 196 199 208 214 220 226 227 230 234 240 247 245 239 230 221 223 223 227 228 219 214 210 204 200 187 174 167 154 156 220 296 331 331 333 327 320 321 322 323 324 322 321 321 318 315 313 313 311 307 304 302
215 215 220 219 221 231 231 221 216 215 217 214 217 228 237 237 238 235 218 211 218 229 235 240 245 240 231 228 228 234 234 229 228 223 215 213 212 207 204 203 199 199 197 189 185 186 184 189 208 219 226 231 231 233 237 241 246 237 223 219 216 217 221 224 221 209 199 196 188 181 178 171 171 176 203 246 280 311 323 327 319 317 320 323 324 324 323 322 322 322 321 318 318 316 311 307 306
210 211 217 220 219 223 228 225 214 208 211 214 218 224 231 236 240 241 219 211 220 227 231 238 241 239 233 229 229 231 232 231 233 231 221 215 219 221 225 222 216 219 215 202 192 188 190 201 216 222 225 228 230 233 237 237 242 241 227 219 221 218 216 221 225 215 197 194 186 175 178 178 185 201 224 261 296 316 320 318 311 314 318 321 324 323 322 323 323 325 324 324 323 321 319 316 314
204 205 210 219 222 219 223 231 214 199 205 214 218 220 225 236 241 235 218 212 219 225 233 238 234 236 232 227 230 227 228 231 231 231 223 220 224 224 227 229 226 233 237 233 224 213 213 217 223 228 229 233 238 236 233 232 239 245 236 226 226 220 213 214 222 217 206 203 191 178 181 181 190 211 240 275 300 310 312 309 306 312 315 321 322 319 322 325 326 326 329 332 331 329 328 324 321
204 204 208 214 221 220 221 232 212 189 200 213 217 219 219 231 237 228 220 218 226 235 240 240 235 234 229 223 227 219 215 218 219 220 220 222 224 221 225 231 234 241 244 241 235 220 218 222 227 230 228 231 238 236 230 231 235 238 235 230 227 221 209 197 197 204 208 203 182 167 173 176 187 220 264 287 301 307 306 305 304 309 314 321 321 319 325 327 327 329 333 335 332 333 332 326 323
210 209 213 214 220 222 217 228 212 185 199 213 216 221 218 226 232 227 225 227 231 238 239 235 233 233 230 224 223 213 207 210 213 212 213 215 213 214 222 227 232 243 244 239 230 224 228 232 231 226 226 229 231 232 234 234 233 228 227 229 227 221 205 192 191 198 208 203 165 142 164 178 195 247 289 300 308 309 307 306 309 315 317 321 324 325 328 328 328 331 334 334 331 333 331 328 326
222 215 215 215 218 224 218 223 216 190 197 215 214 220 222 221 226 225 226 227 223 229 237 233 228 225 221 214 210 205 208 217 221 219 216 214 209 207 214 218 219 229 233 229 227 234 244 246 242 235 235 237 229 231 239 240 233 219 213 221 225 220 209 200 198 198 205 197 152 143 182 204 262 285 296 304 308 307 308 310 314 319 321 323 326 328 329 329 332 332 332 332 332 332 330 330 329
232 226 222 218 213 223 223 220 221 200 194 214 212 216 222 209 206 208 210 213 210 214 228 227 220 216 210 206 202 200 214 229 227 226 221 214 209 206 211 212 204 214 222 221 228 235 249 256 251 243 239 241 235 232 235 231 222 217 213 213 213 211 207 204 201 203 217 212 164 202 237 261 285 294 301 304 307 306 307 310 314 319 322 326 328 330 330 331 333 333 332 332 332 334 333 335 336
230 232 230 223 209 217 223 216 218 205 194 211 206 203 208 186 177 179 186 193 195 197 207 212 209 213 218 215 203 196 206 220 222 221 214 208 211 211 214 206 191 211 224 224 232 237 249 262 261 251 240 240 243 237 223 205 206 215 215 208 201 200 203 204 201 201 214 233 239 256 275 289 294 301 306 307 308 307 308 311 316 321 324 326 328 330 330 331 333 333 334 334 333 334 335 337 339
224 227 226 225 213 210 216 214 207 196 196 209 204 191 176 168 164 166 180 188 191 191 199 211 199 195 210 206 195 190 196 209 217 211 199 199 212 216 213 200 188 209 223 223 236 243 247 256 258 251 237 234 235 230 215 204 199 196 193 192 186 183 194 200 199 204 218 241 261 273 285 294 300 305 308 308 308 308 310 313 317 322 322 323 326 328 330 332 332 332 334 334 332 332 334 335 336
219 223 220 222 216 203 212 220 199 186 199 204 208 207 173 168 166 167 181 184 188 190 190 211 200 180 189 189 180 179 180 191 202 197 190 196 210 214 210 200 196 212 221 221 234 240 238 243 247 240 232 230 226 217 212 209 198 184 179 181 176 177 194 196 194 219 249 260 269 280 287 294 298 304 306 305 306 308 311 313 315 317 315 317 323 326 328 330 329 330 331 331 329 329 330 332 332
216 217 216 221 220 202 212 218 184 180 207 202 210 227 194 163 169 180 192 188 186 186 180 200 201 181 183 181 173 174 174 181 190 190 193 203 209 210 207 202 202 212 218 219 224 227 230 235 237 233 228 225 220 211 205 201 195 184 174 173 180 193 201 198 205 236 255 263 271 279 281 288 295 301 305 302 303 306 308 311 310 308 306 309 318 323 326 327 327 328 328 327 327 326 326 327 327
214 209 211 223 228 217 215 206 176 180 215 211 213 226 218 176 181 194 202 197 193 188 182 193 194 184 184 183 178 179 181 187 191 190 196 205 207 205 202 198 200 206 213 216 216 216 223 229 230 230 224 214 207 199 190 187 185 180 176 178 190 201 204 212 233 245 258 266 268 271 278 290 299 304 305 302 304 307 309 309 306 304 302 304 312 320 323 324 323 324 323 322 322 322 322 322 323
211 202 207 220 230 232 226 217 203 196 207 219 218 219 223 200 189 193 192 189 191 192 191 195 191 183 188 193 188 187 191 193 190 190 197 202 203 201 199 197 197 201 205 207 207 205 210 221 228 232 222 204 194 186 180 179 178 181 187 190 196 205 218 235 245 253 263 267 267 272 283 295 302 304 305 305 307 309 309 306 304 303 301 302 306 311 315 316 317 319 318 318 318 318 319 319 319
206 199 204 215 227 233 238 249 237 213 202 228 222 209 221 219 180 179 178 180 192 204 202 200 196 186 188 198 198 196 198 192 188 195 200 201 201 199 199 198 195 197 199 199 202 202 205 211 217 219 211 198 187 180 176 175 175 181 185 187 197 213 229 241 251 259 265 269 272 277 288 298 303 304 303 305 307 306 304 303 301 300 299 300 303 306 311 314 315 316 315 315 315 315 316 317 316
201 202 202 206 219 225 237 260 242 212 204 232 228 209 213 224 174 176 186 195 205 212 200 190 193 192 190 196 199 202 204 196 196 205 202 201 204 202 202 201 198 197 196 200 204 204 204 202 202 204 202 190 178 174 174 172 172 179 185 191 204 220 235 246 255 262 268 271 274 282 294 302 304 303 301 302 302 301 302 301 299 300 301 303 306 310 313 315 316 316 316 315 315 315 315 314 313
199 209 205 195 205 214 230 253 234 205 211 222 228 219 210 214 183 178 190 202 204 203 195 187 188 191 191 193 197 201 203 201 204 208 205 205 205 203 205 203 200 198 196 201 202 201 201 196 196 198 190 179 173 173 174 173 178 187 196 206 218 232 244 253 259 264 269 272 276 286 296 301 301 299 298 299 301 301 303 303 304 305 307 309 312 315 316 317 318 318 318 317 316 315 313 312 310
201 213 206 190 193 199 215 236 217 215 226 217 221 225 220 214 193 184 187 187 188 195 197 194 193 193 192 195 199 200 202 204 206 206 206 208 208 209 211 207 202 200 197 196 195 197 201 196 191 187 181 177 174 174 178 183 193 203 208 218 231 244 252 257 262 266 270 273 279 289 295 299 296 295 296 299 302 305 308 309 310 312 313 315 317 318 320 321 322 322 321 320 318 315 313 311 309
202 210 203 195 192 186 200 210 208 218 229 228 224 224 229 218 198 196 194 182 185 196 195 187 191 198 198 197 198 198 201 207 209 208 209 212 213 214 214 211 205 201 196 193 192 195 198 194 188 183 182 182 178 181 191 198 206 215 219 229 242 252 257 261 263 266 269 272 280 289 293 292 290 295 301 304 307 309 312 313 314 316 318 319 321 322 325 325 324 324 322 321 319 316 314 311 309
201 204 198 201 204 197 197 200 205 212 220 232 235 230 224 221 218 207 193 181 183 192 188 179 182 195 200 198 199 200 203 209 212 212 211 214 215 213 213 211 204 200 199 196 196 197 195 190 187 186 189 192 190 194 203 210 215 220 228 238 247 252 256 259 261 265 267 270 279 285 287 287 292 300 304 307 310 311 314 316 316 318 319 321 323 325 326 325 324 324 323 322 319 316 314 312 311
200 199 197 204 206 200 198 206 209 217 230 225 229 236 218 214 226 193 181 179 180 181 181 179 182 192 201 203 204 206 209 209 209 208 211 214 214 212 213 210 203 201 204 204 206 203 195 191 192 194 197 202 204 207 211 215 220 226 233 241 247 252 254 257 261 265 266 268 276 281 284 288 294 302 306 308 311 312 314 315 316 317 319 321 324 324 325 325 325 324 323 321 319 316 314 312 311
194 196 200 203 207 201 194 200 199 218 259 211 209 220 200 187 191 173 174 177 177 178 177 177 181 190 201 207 208 212 214 209 205 205 209 212 212 212 212 209 203 200 203 207 207 201 196 196 200 203 206 209 212 213 215 219 224 230 237 244 250 252 254 258 263 266 267 267 273 280 285 289 296 302 307 308 310 311 312 312 313 315 318 321 323 324 326 326 326 325 323 321 319 316 314 313 312
193 197 200 201 210 219 214 202 172 197 236 211 208 212 198 189 173 158 175 181 179 179 172 173 184 192 201 209 213 218 217 209 202 202 207 209 210 211 209 206 200 196 200 205 203 199 200 204 207 210 214 216 217 219 222 227 231 236 241 246 250 251 253 259 265 268 269 268 271 278 284 288 295 301 304 306 307 307 308 309 311 314 317 321 323 325 327 328 328 326 324 322 320 318 318 317 318
202 199 195 198 211 223 226 217 183 196 215 214 217 217 212 206 179 161 176 182 179 178 173 177 189 195 202 210 215 216 212 206 200 199 203 208 210 210 209 206 200 195 198 202 201 201 203 208 212 215 219 222 224 227 230 235 238 240 244 247 250 251 253 260 266 270 271 269 269 274 280 286 292 298 302 303 303 304 306 307 309 314 318 321 324 326 328 329 329 327 326 325 325 326 327 327 328
208 203 192 200 215 220 219 216 208 205 204 211 220 219 218 212 191 178 184 185 182 182 183 186 189 195 205 212 214 213 209 208 205 202 204 207 209 210 209 207 203 198 200 203 204 203 203 209 214 218 223 227 231 234 237 241 243 243 246 248 250 251 254 261 267 270 272 270 269 271 277 283 289 295 299 301 303 304 305 307 310 315 318 321 324 327 328 330 330 330 331 331 333 335 335 335 335
205 210 197 199 213 219 214 211 212 211 206 205 214 223 219 213 202 190 189 190 188 187 189 188 189 197 208 213 215 213 210 210 208 207 208 207 208 209 207 206 203 200 203 206 206 204 204 210 215 220 226 229 233 238 241 245 246 246 248 249 251 251 253 259 265 269 272 271 269 270 274 280 287 294 299 302 303 304 305 307 311 314 318 322 324 327 329 331 333 334 335 336 337 338 338 337 336
201 209 203 199 206 210 208 209 210 211 217 213 207 229 221 210 208 198 188 186 184 186 190 186 186 194 202 211 217 215 213 211 207 208 212 211 210 208 207 207 203 201 207 210 208 205 205 210 216 221 226 230 234 239 241 244 246 248 249 251 252 251 253 259 264 268 271 270 269 269 272 278 286 294 299 301 302 303 304 307 311 315 319 322 325 328 331 333 334 335 336 337 338 338 337 336 335